TIME,DELAY(SENSOR),PRES,OXYGEN,RAWTEMP,T(OPTODE),TCPHASE,FLUOR,BETA(BETA700),BETA(BETA412),BETA(BETA440),CDOM,C(CSC),ED(ED412.20),ED(ED444.00),ED(ED489.60),ED(ED554.30),LU(LU412.10),LU(LU443.90),LU(LU489.70),LU(LU554.70),COMP,TILTX,TILTY,CHECK
1347677758,5808,894.7899780273438000,34.0807418823242200,556.7385864257812000,4.5869269371032715,56.3981285095214840,55,99,101,77,83,15564,0,0,0,0,2147123364,2147774016,2147574381,2147567478,3581,3,13,8390
1347681354,5810,967.4899902343750000,38.3736610412597660,563.5465698242188000,4.3759269714355470,55.7914009094238300,55,99,101,78,83,15555,0,0,0,0,2147120941,2147774692,2147573750,2147573037,3388,3,13,5675
1347684954,5810,982.0900268554688000,38.6552085876464840,565.3314208984375000,4.3205490112304690,55.7683410644531250,54,97,100,85,83,15556,0,0,0,0,2147120292,2147774290,2147570011,2147572114,183,3,13,56535
1347688554,5811,989.9099731445312000,38.7089004516601560,566.3171997070312000,4.2899489402771000,55.7720603942871100,55,99,100,76,83,15558,0,0,0,0,2147122294,2147779044,2147570459,2147569270,197,3,13,34068
1347692154,5812,990.7299804687500000,39.4997711181640600,567.1555786132812000,4.2639160156250000,55.6612014770507800,55,99,101,77,83,15561,0,0,0,0,2147121718,2147777462,2147573312,2147571830,40,3,13,35203
1347695754,5812,995.3800048828125000,40.1124114990234400,567.1375122070312000,4.2644791603088380,55.5660591125488300,55,98,101,78,82,15554,0,0,0,0,2147126409,2147778779,2147574089,2147569974,3316,3,13,47056
1347699354,5809,1001.9799804687500000,39.6749687194824200,566.8687744140625000,4.2728209495544430,55.6326599121093750,56,98,99,78,83,15555,0,0,0,0,2147123081,2147773129,2147575707,2147569993,163,3,13,23058
1347702954,5808,993.7199707031250000,39.6845207214355500,567.1779174804688000,4.2632260322570800,55.6342697143554700,56,100,101,78,82,15559,0,0,0,0,2147124169,2147777344,2147574509,2147571922,3383,3,13,61263
1347706554,5809,1001.1400146484375000,39.0759010314941400,566.9780883789062000,4.2694301605224610,55.7242698669433600,56,99,100,78,83,15560,0,0,0,0,2147121782,2147777462,2147576649,2147568109,88,3,13,37682
1347710154,5807,1005.2899780273438000,39.3558692932128900,566.8693237304688000,4.2728061676025390,55.6823310852050800,55,101,100,78,82,15558,0,0,0,0,2147121828,2147775414,2147574619,2147568960,43,3,13,64501
1347713754,5810,1000.8699951171875000,39.0983009338378900,567.0509033203125000,4.2671699523925780,55.7155494689941400,55,99,104,78,83,15557,0,0,0,0,2147125641,2147779501,2147574299,2147571072,209,3,13,26139
1347717354,5809,1002.7899780273438000,39.3432884216308600,566.9890747070312000,4.2690868377685550,55.6838493347168000,55,97,102,78,82,15559,0,0,0,0,2147127561,2147776192,2147574582,2147572306,437,3,13,61493
1347720954,5810,999.0399780273438000,38.8681716918945300,567.2659301757812000,4.2604942321777340,55.7543716430664060,55,100,101,78,82,15556,0,0,0,0,2147121152,2147774848,2147575899,2147569554,692,3,13,9282
1347724554,5810,1006.2199707031250000,39.2327384948730500,567.1749267578125000,4.2633171081542970,55.7000617980957000,56,100,100,78,82,15557,0,0,0,0,2147125193,2147770523,2147577636,2147571584,29,3,13,56268
1347728154,5813,1006.1099853515625000,38.2256698608398440,566.6845703125000000,4.2785420417785645,55.8470382690429700,55,97,102,78,83,15553,0,0,0,0,2147124297,2147772059,2147576228,2147568621,44,3,13,56108
1347731754,5810,1004.8900146484375000,37.9436912536621100,566.9282226562500000,4.2709789276123050,55.8956604003906250,55,99,102,79,82,15547,0,0,0,0,2147124672,2147770678,2147572992,2147569846,497,3,13,32622
1347735354,5808,1002.6300048828125000,39.0011291503906250,567.8140869140625000,4.2434692382812500,55.7398490905761700,55,98,100,78,82,15557,0,0,0,0,2147122413,2147781897,2147579538,2147575341,110,3,13,24478
1347738954,5812,1007.9199829101562000,38.5358581542968750,567.2299194335938000,4.2616119384765625,55.8034896850585940,56,98,100,78,82,15551,0,0,0,0,2147123721,2147775021,2147575451,2147568082,100,3,13,33933
1347742554,5812,1009.6300048828125000,38.7867202758789060,567.2603759765625000,4.2606639862060550,55.7708206176757800,54,99,101,78,82,15549,0,0,0,0,2147123547,2147775570,2147578898,2147571245,47,3,13,59512
1347746154,5811,1012.1900024414062000,37.9225997924804700,567.1605224609375000,4.2637667655944820,55.9001808166503900,54,96,102,78,83,15555,0,0,0,0,2147125046,2147773750,2147574400,2147570166,280,3,13,12164
1347749754,5810,1009.6799926757812000,38.2700386047363300,567.3123168945312000,4.2590517997741700,55.8475494384765600,55,99,100,78,83,15550,0,0,0,0,2147123968,2147777792,2147577069,2147569920,225,3,13,9195
1347753354,5810,1006.4600219726562000,38.5425682067871100,568.0164794921875000,4.2371830940246580,55.8149604797363300,55,97,101,79,83,15546,0,0,0,0,2147122331,2147776073,2147572242,2147570980,177,3,13,41269
1347756954,5809,1006.8400268554688000,38.8445587158203100,568.0103759765625000,4.2373728752136230,55.7667503356933600,55,100,101,77,83,15526,0,0,0,0,2147127698,2147775771,2147572608,2147570002,74,3,13,10700
1347760554,5807,1005.3499755859375000,38.5648002624511700,568.1134033203125000,4.2341728210449220,55.8124313354492200,55,99,100,77,84,15538,0,0,0,0,2147121536,2147772626,2147576082,2147569956,216,3,13,55044
1347764154,5809,1008.5000000000000000,38.8233909606933600,567.9406127929688000,4.2395420074462890,55.7681388854980500,55,99,102,78,82,15540,0,0,0,0,2147122614,2147772214,2147577188,2147569984,165,3,13,58295
1347767754,5809,1010.5399780273438000,38.6151199340820300,567.9478759765625000,4.2393112182617190,55.8003196716308600,55,100,100,79,83,15538,0,0,0,0,2147124964,2147781366,2147575661,2147569554,256,3,13,18310
1347771354,5808,1012.6500244140625000,38.4182510375976560,567.4114990234375000,4.2559719085693360,55.8273086547851560,55,98,100,79,82,15542,0,0,0,0,2147125321,2147773257,2147572690,2147568493,178,3,13,48197
1347774954,5810,1013.2299804687500000,37.9566307067871100,567.7061767578125000,4.2468199729919430,55.8984794616699200,55,100,100,79,81,15539,0,0,0,0,2147120740,2147776438,2147578331,2147570249,328,3,13,59478
1347778554,5811,1009.2700195312500000,37.6907615661621100,567.7841796875000000,4.2443962097167970,55.9385299682617200,56,98,102,78,83,15536,0,0,0,0,2147126464,2147771574,2147581284,2147567954,3564,3,13,32875
1347782154,5809,1006.1599731445312000,38.6239395141601560,567.7136230468750000,4.2465901374816895,55.7989006042480500,55,98,102,78,83,15537,0,0,0,0,2147123090,2147773211,2147572096,2147570843,161,3,13,55831
1347785754,5810,1007.0999755859375000,38.7883682250976560,568.2241821289062000,4.2307319641113280,55.7784385681152340,55,101,100,78,83,15512,0,0,0,0,2147121956,2147777526,2147573677,2147570605,122,3,13,64185
1347789354,5810,1009.2899780273438000,38.6487693786621100,567.4020996093750000,4.2562642097473145,55.7886695861816400,55,98,101,78,83,15533,0,0,0,0,2147122148,2147777956,2147568301,2147572726,3343,3,13,34806
1347792954,5808,1014.4600219726562000,38.6776008605957000,567.3115844726562000,4.2590727806091310,55.7840003967285160,54,97,101,80,83,15532,0,0,0,0,2147124854,2147771730,2147573494,2147570432,398,3,13,54585
1347796554,5808,1009.6699829101562000,39.0883293151855500,568.3734741210938000,4.2260928153991700,55.7343788146972660,55,99,100,78,83,15530,0,0,0,0,2147124571,2147770011,2147570587,2147569636,210,3,13,28569
1347800154,5809,1008.3499755859375000,39.0833587646484400,568.5938720703125000,4.2192459106445310,55.7363395690918000,55,104,101,78,83,15534,0,0,0,0,2147124397,2147774921,2147573796,2147568393,395,3,13,41899
1347803754,5808,1005.4000244140625000,39.0442810058593750,569.1646728515625000,4.2015171051025390,55.7463989257812500,55,99,101,78,82,15532,0,0,0,0,2147120996,2147777398,2147574683,2147567844,416,3,13,29479
1347807354,5809,1012.3800048828125000,39.4528999328613300,569.2487792968750000,4.1989021301269530,55.6875000000000000,56,100,101,78,83,15533,0,0,0,0,2147122441,2147773302,2147574025,2147571940,3597,3,13,52295
1347810954,5809,1009.1199951171875000,39.2930488586425800,568.8510742187500000,4.2112579345703125,55.7125511169433600,55,101,101,78,82,15533,0,0,0,0,2147121014,2147775305,2147575286,2147566592,609,3,13,56320
1347814554,5810,1013.5000000000000000,39.2805786132812500,568.6610107421875000,4.2171630859375000,55.7092094421386700,56,101,101,78,83,15531,0,0,0,0,2147123611,2147778340,2147579318,2147570596,428,3,13,47783
1347818154,5810,1015.2100219726562000,38.4866104125976560,567.4409790039062000,4.2550539970397950,55.8131408691406250,53,97,102,78,82,15530,0,0,0,0,2147124818,2147777828,2147572772,2147570605,3452,3,13,15082
1347821754,5809,1015.5800170898438000,38.1701316833496100,568.0781250000000000,4.2352681159973145,55.8686408996582000,55,99,100,78,84,15532,0,0,0,0,2147124224,2147771410,2147575734,2147569737,184,3,13,58186
1347823555,5809,1013.0700073242188000,37.9319114685058600,567.4456176757812000,4.2549128532409670,55.9038581848144500,55,98,100,77,82,15529,0,0,0,0,2147123794,2147774546,2147573586,2147570185,3474,3,13,23509
